User: anonymous   Login
Location: Ostrava
(49.8330°N, 18.2830°E)
Time: 11:35:48
(UTC+02:00)
Language:

NOAA 19 - Orbit

View from above orbital plane
View from above orbital plane
View from above satellite
View from above satellite

Ground track
Ground track

The orbit data is extracted from the following two-line orbital elements,

1 33591U 09005A   18172.95772352 +.00000078 +00000-0 +67396-4 0  9994
2 33591 099.1419 151.0790 0013249 317.0666 042.9470 14.12287299482585
Epoch (UTC): 21 June 2018 22:59:07
Eccentricity: 0.0013249
inclination: 99.1419°
perigee height: 842 km
apogee height: 861 km
right ascension of ascending node: 151.0790°
argument of perigee: 317.0666°
revolutions per day: 14.12287299
mean anomaly at epoch: 42.9470°
orbit number at epoch: 48258

The dashed part of the orbit path shows where the satellite is in the earth's shadow,  

DLR